sat.trackr.live / text

‹ back to catalog

STARLINK-34961

NORAD 65252 · 2025-179T

PAYLOAD ACTIVE UNKNOWN

§ Identity

Operator
Country
US
Launch date
2025-08-18
Launch site
AFWTR
Launch vehicle
Mass (kg)
RCS (m²)

Purposes: comms

External: N2YO · Heavens-Above · Gunter

§ Orbital elements

Epoch: 2026-05-25T01:57:26.429760Z

Period
95.64 min
Inclination
97.4485°
Eccentricity
0.0001356
Mean motion
15.05651905 rev/d
Perigee alt
548.6 km
Apogee alt
550.4 km
Semi-major
6,927.6 km
B*
2.0366e-4
RAAN
187.9066°
Arg perigee
145.2163°
Mean anomaly
214.9153°
Rev number
4,332

§ Raw data

STARLINK-349611 65252U 25179T   26145.08155590  .00002881  00000+0  20366-3 0  99932 65252  97.4485 187.9066 0001356 145.2163 214.9153 15.05651905 43327

JSON: /api/v1/satellites/65252 · /tle

For live sub-satellite position, see the globe view (requires WebGL).

§ Visibility from observer

Set your observer location to see the next 7 days of passes ≥ 10°. The values pass through the URL so the page stays shareable.

No JS? Fill the form by hand. The geolocation button needs JavaScript.